Location: ASU Dark Sky Observatory
(36.2504°N, 81.4125°W)
Time: 09:42:33
(UTC-04:00)

Daily predictions for brighter satellites

Satellite Brightness Start Highest point End
(mag) Time Altitude Azimuth Time Altitude Azimuth Time Altitude Azimuth
Meteor 1-24 Rocket 4.1 19:59:23 10° N 20:04:39 44° ENE 20:10:03 10° SSE
Cosmos 1707 2.7 20:01:43 10° N 20:05:37 81° E 20:09:29 10° S
Cosmos 405 3.6 20:03:22 10° SSW 20:06:51 62° W 20:10:21 10° N
Cosmos 1953 4.0 20:05:00 10° ESE 20:07:20 15° E 20:09:40 10° NE
Cosmos 2082 Rocket 3.9 20:05:55 10° NNE 20:08:55 14° NE 20:11:54 10° E
Cosmos 2123 Rocket 4.5 20:03:57 10° N 20:09:51 40° ENE 20:15:41 10° SSE
NOAA 12 4.2 20:06:26 10° SSE 20:11:45 86° WSW 20:17:05 10° NNW
ALOS 2.4 20:09:23 10° SSE 20:13:55 54° ENE 20:18:28 10° N
USA 215 4.0 20:12:59 10° ENE 20:18:39 31° SE 20:24:16 10° S
Meteor 2-5 Rocket 4.0 20:13:23 10° NNW 20:19:08 79° W 20:24:59 10° S
COSMOS 2406 3.7 20:17:00 10° NNW 20:22:41 66° WSW 20:28:18 10° S
Cosmos 1766 3.2 20:19:30 10° S 20:23:18 66° E 20:27:10 10° NNE
Spot 2 Rocket 3.9 20:19:22 10° SE 20:24:10 43° ENE 20:28:59 10° N
H-II Stage 2 2.8 20:30:11 10° SW 20:31:34 15° S 20:32:29 13° SE
Resurs 1-3 3.9 20:28:52 10° SE 20:33:01 45° ENE 20:37:12 10° N
ISS -2.0 20:32:41 10° SSE 20:34:28 15° SE 20:34:28 15° SE
BREEZE-M DEB (TANK) 3.2 20:37:00 10° WSW 20:39:33 62° NNW 20:45:23 10° NE
RESURS DK-1 2.3 20:37:18 10° NNW 20:41:27 76° ENE 20:45:34 10° SSE
Envisat 4.2 20:40:01 17° ESE 20:42:19 24° ENE 20:46:18 10° NNE
Cosmos 1674 4.0 20:44:35 10° NNE 20:47:22 20° ENE 20:47:22 20° ENE
Lacrosse 5 2.9 20:43:04 10° WSW 20:47:56 46° NW 20:52:49 10° NNE
Cosmos 1125 Rocket 3.5 20:44:22 10° S 20:49:24 54° ESE 20:54:29 10° NNE
Cosmos 2344 4.2 20:43:03 10° SW 20:50:38 62° NW 20:59:00 10° NNE
CZ-2D R/B 3.2 20:47:49 10° SSE 20:51:37 63° ENE 20:55:29 10° N
BREEZE-M DEB (TANK) 2.8 20:49:18 10° SW 20:52:06 54° SE 20:59:52 10° ENE
Timation 1 Rocket 4.3 20:49:25 10° SSW 20:55:23 74° ESE 21:01:24 10° NNE
Cosmos 1805 3.1 20:53:00 10° S 20:56:54 86° E 21:00:48 10° N
SAR-Lupe-4 3.8 20:55:34 29° SE 20:57:00 46° ENE 21:00:26 10° N
Geosat 3.9 20:53:41 10° NNE 20:58:44 89° ESE 21:03:45 10° SSW
Okean 3 Rocket 3.5 20:56:32 10° N 21:00:57 85° E 21:05:21 10° S
Tiangong 1 0.8 20:59:42 10° WNW 21:02:38 75° SSW 21:03:03 59° SE
ERS-1 Rocket 4.4 21:03:25 20° ENE 21:03:25 20° ENE 21:06:59 10° NNE
Yuri Rocket 4.3 21:01:30 10° WSW 21:04:59 25° S 21:06:15 21° SSE
In-Cosmos 22 4.1 21:00:16 10° N 21:05:35 80° W 21:10:51 10° S
Abrixas 3.9 21:04:43 10° NNW 21:06:57 24° NNE 21:06:57 24° NNE
SeaSat 1 3.5 21:05:26 10° S 21:10:06 44° WSW 21:14:50 10° NW
Cosmos 1470 3.3 21:12:27 40° ENE 21:12:27 40° ENE 21:15:40 10° NNE
SL-27 R/B 4.3 21:10:01 10° NW 21:13:14 32° WSW 21:16:30 10° SSW
USA 186 3.1 21:15:08 21° NNW 21:15:08 21° NNW 21:16:04 10° NNW
SAR-Lupe-1 3.9 21:16:03 58° SE 21:16:38 74° ENE 21:20:13 10° N
Cosmos 1340 Rocket 4.2 21:14:51 10° NNE 21:17:07 25° NE 21:17:07 25° NE
H-2A R/B (2) 3.1 21:16:31 10° WSW 21:19:31 30° S 21:20:59 27° SSE
Cosmos 1833 Rocket 3.0 21:14:32 10° N 21:19:57 47° ENE 21:21:14 40° E
Meteor 1-29 2.8 21:16:38 10° NNE 21:20:07 83° E 21:21:00 48° S
Cosmos 2278 Rocket 3.7 21:15:38 10° SW 21:20:51 37° WNW 21:26:06 10° N
GP-B 2.9 21:19:19 21° S 21:22:13 82° E 21:26:40 10° N
Cosmos 1076 Rocket 3.4 21:18:59 10° N 21:23:14 84° W 21:25:13 31° S
Cosmos 1818 3.5 21:17:49 10° NNW 21:23:16 72° ENE 21:25:02 43° SE
Meteor 1-4 Rocket 3.4 21:20:15 10° SSW 21:23:36 48° W 21:27:00 10° N
COSMOS 2487 3.3 21:21:07 10° N 21:23:40 38° NNE 21:23:40 38° NNE
Cosmos 2016 Rocket 4.3 21:24:19 39° ESE 21:25:16 41° E 21:31:00 10° NNE
Cosmos 1733 4.1 21:27:32 37° NNE 21:27:32 37° NNE 21:30:03 10° NNE
Resurs 01 Rocket 3.2 21:22:30 10° SSW 21:26:31 35° W 21:30:35 10° NNW
SJ-11-01 4.3 21:26:00 52° ESE 21:26:40 58° ENE 21:31:18 10° N
Helios 1B rocket 2.8 21:24:08 10° N 21:28:13 63° WNW 21:32:17 10° SSW
CZ-3B DEB 4.4 21:19:38 10° W 21:28:42 31° NW 21:33:28 10° NNE
Delta 2 Rocket 4.2 21:27:24 10° W 21:31:41 37° SSW 21:32:00 37° SSW
Cosmos 1269 Rocket 3.9 21:27:16 10° NNW 21:32:34 79° ENE 21:33:58 50° SSE
Cosmos 1766 Rocket 3.5 21:28:56 10° N 21:33:26 88° E 21:34:17 59° S
SWAS 4.4 21:30:27 10° SSW 21:34:43 85° WNW 21:39:03 10° NNE
Helios 1A 3.4 21:33:37 32° SSW 21:35:21 59° W 21:39:30 10° NNW
Cosmos 2297 4.1 21:29:46 10° SSW 21:35:24 63° WNW 21:41:06 10° NNE
ATLAS 5 CENTAUR R/B 1.6 21:31:51 10° SSW 21:36:27 89° SE 21:41:11 11° NNE
Cosmos 2100 Rocket 3.9 21:33:27 10° S 21:39:45 86° E 21:46:08 10° N
GPS 2-05 Rocket1 4.2 21:36:55 10° WSW 21:39:10 35° WSW 21:39:10 35° WSW
Cosmos 1953 4.1 21:39:47 10° SW 21:43:27 32° WNW 21:47:07 10° NNW
Cosmos-2242 3.3 21:44:00 38° SSW 21:45:28 64° W 21:49:42 10° N
Cosmos 1939 Rocket 3.3 21:46:50 58° NNW 21:46:50 58° NNW 21:50:14 10° NNW
Cosmos 2082 Rocket 2.2 21:47:58 10° NNW 21:53:40 79° WSW 21:54:34 63° S
Cosmos 1802 Rocket 3.9 21:56:21 28° S 21:59:44 83° W 22:05:56 10° N
Cosmos 1271 Rocket 4.0 22:00:43 41° WNW 22:00:43 41° WNW 22:04:13 10° N
USA 215 3.6 21:55:23 10° NE 22:01:51 64° NW 22:08:16 10° WSW
Cosmos 158 Rocket 4.2 21:59:23 10° NNW 22:04:28 63° WSW 22:04:41 62° WSW
Lacrosse 5 rocket 3.6 22:05:25 10° NNW 22:06:37 18° NNW 22:06:37 18° NNW
Cosmos 2061 Rocket 4.4 22:05:13 10° SSW 22:11:30 62° W 22:17:52 10° N
Timation 2 Rocket 4.1 22:13:44 10° NNW 22:19:55 62° WSW 22:20:08 62° WSW
H-2A R/B 4.2 22:24:05 17° NNE 22:24:05 17° NNE 22:25:30 10° N
Envisat 4.3 22:20:13 33° WSW 22:21:06 36° W 22:25:45 10° NNW
USA 267 4.1 22:32:47 37° NNE 22:32:47 37° NNE 22:38:12 10° NNW
